Regional Weather Roundup
Issued by NWS

Home | Current Version | Previous Version | Graphics & Text | Print | Product List | Glossary On
Versions: 1 2 3 4 5 6 7 8 9 10 11 12 13 14 15 16 17 18 19 20 21 22 23 24 25 26 27 28 29 30 31 32 33 34 35 36 37 38 39 40 41 42 43 44 45 46 47 48 49 50
000
ASUS45 KCYS 272110
RWRWY

WYOMING REGIONAL WEATHER ROUNDUP
NATIONAL WEATHER SERVICE CHEYENNE WY
300 PM MDT MON JUL 27 2015

NOTE:  "FAIR" INDICATES FEW OR NO CLOUDS BELOW 12,000 FEET
WITH NO SIGNIFICANT WEATHER AND/OR OBSTRUCTIONS TO VISIBILITY.

WYZ001-272200-
YELLOWSTONE NATIONAL PARK

CITY           SKY/WX    TMP DP  RH WIND       PRES   REMARKS
LK YELLOWSTONE   N/A     47  35  63 W9G28     30.11R
W YELLOWSTONE  NOT AVBL

$$
WYZ002>013-054>058-071-098>099-272200-
NORTHERN WYOMING

CITY           SKY/WX    TMP DP  RH WIND       PRES   REMARKS
JACKSON        CLOUDY    46  43  87 S17       30.11F
CODY           PTSUNNY   70  52  52 N14G20    29.77S THUNDER
GREYBULL       FAIR      88  43  20 VRB3      29.62F
WORLAND        FAIR      92  43  18 N6        29.61F
SHERIDAN       FAIR      73  53  49 SW13      29.79R THUNDER
BUFFALO        TSTM      71  56  58 W5        29.82R
GILLETTE       FAIR      85  50  29 E13       29.71F
HULETT         FAIR      86  45  23 SE15G21   29.70F
NEWCASTLE      FAIR      88  43  20 MISG      29.70F

$$
WYZ014>020-022>026-101>103-272200-
CENTRAL WYOMING

CITY           SKY/WX    TMP DP  RH WIND       PRES   REMARKS
BIG PINEY      LGT RAIN  55  38  52 NW29G55   30.07R
PINEDALE       FAIR      55  34  44 W45G52    30.14R
DUBOIS         FAIR      59  45  58 W21       29.98R THUNDER
LANDER         FAIR      85  23  10 SW21G30   29.74F
RIVERTON       FAIR      81  27  14 S25G39    29.75S
CASPER         LGT RAIN  73  52  47 S16G32    29.82R
DOUGLAS        FAIR      92  34  13 W21G32    29.76S

$$
WYZ021-027>030-104>119-272200-
SOUTHERN WYOMING

CITY           SKY/WX    TMP DP  RH WIND       PRES   REMARKS
EVANSTON       FAIR      66  38  35 W16G30    30.12R
KEMMERER       FAIR      61  36  39 W26G37    30.11R
FORT BRIDGER   CLEAR     70  39  32 W28G41    30.11R
ROCK SPRINGS   PTSUNNY   76  36  23 W39G49    29.96R
DIXON          FAIR      85  32  14 SW31G38   29.98R
RAWLINS        FAIR      86  32  14 SW39G55   29.92F
SARATOGA       MOCLDY    79  32  18 SW39G48   29.99R
LARAMIE        PTSUNNY   85  39  19 SW32G40   29.99F
CHEYENNE       FAIR      91  44  19 S13G24    29.91F
TORRINGTON     FAIR      93  54  26 SE16G23   29.74F HX  91
PINE BLUFFS    FAIR      91  50  24 SE5       29.84F

$$


USA.gov is the U.S. government's official web portal to all federal, state and local government web resources and services.